Belgrade, MT

6:59 AM MDT on August 27, 2016 (GMT -0600)
Gallatin

Weather History for KBZN - December, 2011

Change the Weather History Date:

Wednesday, December 28, 2011

  Actual Average Record
Temperature  
Mean Temperature 43 °F 21 °F  
Max Temperature 50 °F 33 °F 51 °F (1945)
Min Temperature 36 °F 9 °F -32 °F (1983)
Degree Days  
Heating Degree Days 22 44  
Month to date heating degree days 1239 1225  
Since 1 July heating degree days 3074 3106  
Cooling Degree Days 0 0  
Month to date cooling degree days 0 0  
Year to date cooling degree days 200 368  
Moisture  
Dew Point 28 °F    
Average Humidity 61    
Maximum Humidity 76    
Minimum Humidity 45    
Precipitation  
Precipitation 0.00 in 0.01 in 0.35 in (2001)
Month to date precipitation 0.18 0.47  
Year to date precipitation 10.68 13.94  
Snow  
Snow 0.00 in 0.20 in 5.60 in (1947)
Month to date snowfall 3.1 5.6  
Since 1 July snowfall 5.3 13.0  
Snow Depth 0.00 in    
Sea Level Pressure  
Sea Level Pressure 29.89 in    
Wind  
Wind Speed 12 mph (SW)    
Max Wind Speed 29 mph    
Max Gust Speed 41 mph    
Visibility 10 miles    
Events      
T = Trace of Precipitation, MM = Missing Value Source: NWS Daily Summary

Daily Weather History Graph

Daily Weather History Graph

Search for Another Location

Airport or City:

Trip Planner

Search our weather history database for the weather conditions in past years. The results will help you decide how hot, cold, wet, or windy it might be!

Date:

Astronomy

Dec. 28, 2011 Rise Set
Actual Time 8:05 AM MST 4:47 PM MST
Civil Twilight 7:30 AM MST 5:21 PM MST
Nautical Twilight 6:53 AM MST 5:59 PM MST
Astronomical Twilight 6:16 AM MST 6:35 PM MST
Moon 10:19 AM MST (12/28) 9:42 PM MST (12/28)
Length of Visible Light 9h 50m
Length of Day
8h 41m
Waxing Crescent, 18% of the Moon is Illuminated
Dec 28
Waxing Crescent
Dec 31
First Quarter
Jan 9
Full
Jan 16
Last Quarter
Jan 23
New

Hourly Weather History & Observations

Time (MST) Temp. Windchill Dew Point Humidity Pressure Visibility Wind Dir Wind Speed Gust Speed Precip Events Conditions
12:56 AM 39.9 °F 35.8 °F 21.0 °F 47% 29.96 in 10.0 mi WSW 5.8 mph - N/A   Scattered Clouds
1:56 AM 39.0 °F 35.7 °F 21.0 °F 49% 29.95 in 10.0 mi South 4.6 mph - N/A   Overcast
2:56 AM 39.9 °F 35.1 °F 23.0 °F 51% 29.93 in 10.0 mi South 6.9 mph - N/A   Overcast
3:56 AM 39.0 °F 33.4 °F 23.0 °F 53% 29.92 in 10.0 mi ESE 8.1 mph - N/A   Overcast
4:56 AM 43.0 °F 38.8 °F 26.1 °F 51% 29.91 in 10.0 mi WSW 6.9 mph - N/A   Overcast
5:56 AM 46.0 °F 39.9 °F 26.1 °F 46% 29.91 in 10.0 mi SW 13.8 mph 29.9 mph N/A   Overcast
6:56 AM 45.0 °F 37.9 °F 27.0 °F 49% 29.90 in 10.0 mi SW 16.1 mph - N/A   Mostly Cloudy
7:56 AM 46.0 °F 41.0 °F 28.0 °F 50% 29.88 in 10.0 mi SW 10.4 mph 18.4 mph N/A   Overcast
8:56 AM 45.0 °F 39.3 °F 28.0 °F 52% 29.92 in 10.0 mi WSW 11.5 mph - N/A   Partly Cloudy
9:30 AM 44.6 °F 40.2 °F 28.4 °F 53% 29.92 in 10.0 mi SW 8.1 mph - N/A   Overcast
9:56 AM 45.0 °F 38.9 °F 28.9 °F 53% 29.92 in 10.0 mi WSW 12.7 mph 18.4 mph N/A   Partly Cloudy
10:56 AM 46.9 °F - 30.0 °F 52% 29.93 in 10.0 mi WSW 15.0 mph - N/A   Clear
11:56 AM 46.9 °F - 28.9 °F 50% 29.89 in 10.0 mi SW 19.6 mph 32.2 mph N/A   Clear
12:56 PM 48.0 °F - 30.0 °F 50% 29.89 in 10.0 mi SW 27.6 mph 34.5 mph N/A   Clear
1:56 PM 50.0 °F - 30.9 °F 48% 29.88 in 10.0 mi WSW 26.5 mph 34.5 mph N/A   Clear
2:56 PM 50.0 °F - 30.0 °F 46% 29.88 in 10.0 mi WSW 18.4 mph 25.3 mph N/A   Scattered Clouds
3:56 PM 48.0 °F - 30.0 °F 50% 29.91 in 10.0 mi SW 16.1 mph 25.3 mph N/A   Scattered Clouds
4:56 PM 46.9 °F - 28.9 °F 50% 29.90 in 10.0 mi WSW 13.8 mph 26.5 mph N/A   Partly Cloudy
5:56 PM 44.1 °F 37.7 °F 32.0 °F 63% 29.90 in 10.0 mi SW 12.7 mph - N/A   Scattered Clouds
6:56 PM 43.0 °F 38.8 °F 32.0 °F 65% 29.89 in 10.0 mi SW 6.9 mph - N/A   Clear
7:56 PM 45.0 °F 41.8 °F 33.1 °F 63% 29.86 in 10.0 mi WSW 5.8 mph 19.6 mph N/A   Overcast
8:56 PM 37.9 °F - 30.9 °F 76% 29.85 in 10.0 mi Calm Calm - N/A   Overcast
9:56 PM 39.9 °F 36.7 °F 32.0 °F 73% 29.81 in 10.0 mi ESE 4.6 mph - N/A   Overcast
10:56 PM 48.0 °F - 30.9 °F 52% 29.75 in 10.0 mi SSW 9.2 mph - N/A   Overcast
11:56 PM 46.0 °F 41.4 °F 32.0 °F 58% 29.72 in 10.0 mi SW 9.2 mph - N/A   Overcast